Lid_Strength_Index
8 8 8 8 8 8 8 8 9 8 9 7 7 6 6 5 5 5 5 4 3 3 3 3 3 2 2 2 1 1 2 2 2 1 1 1 1 1 0 0 0 0 0 0
9 8 8 9 8 7 7 7 7 8 7 5 5 5 6 5 5 5 5 5 4 4 3 3 3 2 2 2 1 1 2 2 1 1 1 1 1 1 1 1 1 0 1 0
11 8 8 10 8 8 7 7 7 8 8 6 7 6 7 6 6 5 5 5 4 4 3 2 2 2 2 2 1 2 2 2 1 1 1 1 1 1 1 1 1 1 1 0
11 9 13 8 6 6 7 6 6 6 7 6 5 5 5 5 5 5 5 4 4 4 3 2 2 1 1 1 1 2 2 2 1 1 2 1 1 1 1 1 1 1 1 0
12 11 9 8 6 7 8 8 5 6 6 6 5 5 6 4 4 5 4 4 3 3 2 2 2 1 2 2 2 2 2 2 2 1 2 1 2 1 1 1 1 1 1 1
10 12 13 11 7 6 5 10 7 6 6 6 6 9 8 5 4 4 4 3 3 3 3 2 2 1 2 2 2 2 2 2 1 1 1 2 1 1 1 1 1 1 1 1
10 11 11 8 6 5 12 13 6 6 6 6 7 7 5 4 4 4 3 3 3 3 3 2 1 1 2 2 2 2 1 1 1 1 1 1 1 1 1 1 1 1 1 2
9 11 13 6 7 11 9 6 6 5 5 6 5 4 5 4 4 4 4 4 3 3 3 2 2 1 2 2 1 1 1 1 1 1 1 1 1 1 1 1 2 2 2 2
8 9 6 5 6 5 5 6 6 5 5 4 5 5 5 5 4 5 5 6 4 4 3 3 2 2 2 1 1 1 1 2 2 1 1 1 2 2 2 2 2 2 2 2
8 8 7 6 5 4 4 5 4 4 4 4 5 5 5 5 5 5 7 8 6 6 4 5 5 4 4 2 1 1 2 2 2 2 2 1 1 1 2 2 2 2 2 3
7 7 6 6 5 5 4 4 4 3 4 4 4 5 5 5 4 6 6 7 7 6 6 7 6 7 7 5 3 2 2 2 2 2 2 2 1 2 2 1 2 2 2 2
10 7 7 6 5 4 5 5 4 4 4 4 4 4 4 4 4 5 7 6 7 5 6 5 7 9 8 7 6 3 2 2 2 2 2 2 3 4 13 13 13 12 9 3
7 5 5 4 4 4 5 4 4 4 4 4 3 3 3 4 4 6 6 7 8 8 7 5 8 7 8 8 6 3 2 2 2 2 2 2 2 2 3 7 15 17 15 11
4 4 5 5 6 4 4 4 3 3 3 3 3 3 3 4 5 5 6 6 6 7 8 8 7 7 7 8 7 5 2 6 2 2 2 2 2 2 2 3 3 2 14 15
5 4 5 4 4 4 4 4 4 4 4 3 3 3 3 4 4 4 4 6 6 7 7 6 8 7 7 7 6 5 3 2 2 1 2 2 1 2 2 2 2 3 6 11
5 4 4 5 5 5 5 4 4 4 4 3 4 4 4 4 4 4 4 4 6 7 7 8 6 7 6 6 5 5 3 6 4 2 2 2 2 2 2 2 2 3 3 7
6 6 5 5 6 5 6 4 4 4 4 4 3 3 3 3 4 5 5 5 5 5 6 6 6 5 5 6 5 4 5 3 6 2 2 2 2 2 2 2 2 2 2 6
5 6 5 5 5 6 7 5 5 4 4 3 3 3 3 4 4 5 5 5 5 5 6 6 6 6 5 5 5 4 3 3 4 4 4 4 3 3 2 2 2 2 5 8
7 8 7 6 6 7 5 5 4 4 4 4 4 3 3 4 4 4 5 5 6 6 6 5 5 5 5 6 5 4 5 4 3 4 3 5 3 4 5 6 4 2 5 7
7 7 7 7 6 6 6 5 4 5 4 4 4 4 4 5 5 4 4 6 5 6 4 6 5 5 4 5 5 5 5 4 5 5 5 4 4 5 5 9 7 7 6 4
6 6 6 6 7 7 6 6 6 6 5 4 4 5 5 5 6 6 6 7 6 6 6 5 6 7 5 6 5 5 5 5 6 5 5 5 4 4 6 6 7 9 9 8
3 4 5 5 6 6 5 5 5 5 5 5 5 5 5 5 5 6 7 7 7 8 7 7 8 8 7 5 4 5 5 5 5 5 5 5 5 6 6 6 8 8 10 10
3 3 4 4 4 4 4 5 5 5 5 5 5 4 5 6 6 8 9 7 7 8 8 7 8 8 8 5 5 5 5 6 5 6 6 6 6 7 7 7 8 8 9 10
3 3 4 3 3 4 4 4 4 4 4 4 4 3 4 5 5 5 5 6 7 8 8 8 8 8 7 5 6 5 6 6 6 5 6 8 6 6 6 7 7 7 8 9
3 4 4 4 5 4 3 3 4 4 4 3 3 3 3 4 5 4 4 4 5 5 6 8 7 7 7 7 7 6 6 7 7 6 6 6 7 7 6 6 7 7 7 7
4 5 4 4 5 5 5 5 5 5 5 5 4 4 4 4 4 4 4 4 4 5 5 5 6 6 7 7 7 7 7 8 7 7 8 7 7 7 7 7 7 7 7 7
3 5 4 4 3 4 4 4 5 4 4 4 5 4 4 4 4 4 5 4 4 4 4 5 5 5 6 6 6 6 6 6 9 8 7 8 8 8 7 7 7 7 8 9